FW8240 Weather Reports


time (UTC)temp
C
wind
direction
speed
KPH
gust
KPH
rain 1hr
cm
rain 24hr
cm
rain mn
cm
humidity
%
barometer
mb
20260507041556 20 360 0.0 1.6 0.03 0.25 0.25 93 1030.6
20260507041055 20 360 0.0 1.6 0.03 0.25 0.25 93 1030.8
20260507040557 20 360 0.0 1.6 0.03 0.25 0.25 93 1030.9
20260507040057 20 360 0.0 1.6 0.03 0.25 0.25 93 1030.9
20260507035554 20 360 0.0 3.2 0.03 0.25 0.25 92 1030.8
20260507035054 20 1 0.0 3.2 0.05 0.25 0.25 93 1030.7
20260507034557 20 1 0.0 3.2 0.05 0.25 0.25 92 1030.6
20260507034052 20 1 0.0 3.2 0.03 0.23 0.23 92 1030.5
20260507033551 20 359 1.6 3.2 0.03 0.23 0.23 92 1030.4
20260507033053 20 359 0.0 0.0 0.03 0.23 0.23 92 1030.3
20260507032550 20 356 0.0 0.0 0.03 0.23 0.23 92 1030.1
20260507032048 20 337 0.0 0.0 0.03 0.23 0.23 92 1030.0
20260507031548 20 337 0.0 0.0 0.03 0.23 0.23 92 1030.0
20260507031048 20 337 0.0 0.0 0.05 0.23 0.23 92 1029.9
20260507030547 20 337 0.0 0.0 0.05 0.23 0.23 92 1029.9
20260507030048 20 337 0.0 0.0 0.05 0.23 0.23 92 1030.0
20260507025547 20 337 0.0 0.0 0.05 0.25 0.23 92 1030.0
20260507025047 20 337 0.0 0.0 0.03 0.23 0.20 92 1029.8
20260507024555 20 337 0.0 0.0 0.03 0.23 0.20 92 1029.8
20260507024046 20 337 0.0 0.0 0.05 0.23 0.20 92 1029.7
20260507023548 20 337 0.0 0.0 0.05 0.23 0.20 92 1029.6
20260507023049 20 337 0.0 0.0 0.05 0.23 0.20 92 1029.5
20260507022546 20 337 0.0 0.0 0.05 0.23 0.20 92 1029.4
20260507022044 20 337 0.0 0.0 0.05 0.23 0.20 92 1029.5
20260507021546 20 337 0.0 0.0 0.05 0.23 0.20 92 1029.4
20260507021044 20 337 0.0 0.0 0.05 0.20 0.18 92 1029.4
20260507020545 20 337 0.0 0.0 0.05 0.20 0.18 92 1029.5
20260507020105 20 337 0.0 0.0 0.05 0.20 0.18 92 1029.4
20260507015543 21 337 0.0 0.0 0.05 0.23 0.18 92 1029.5
20260507015043 21 337 0.0 0.0 0.05 0.23 0.18 92 1029.4
20260507014547 21 337 0.0 0.0 0.08 0.23 0.18 92 1029.5
20260507014045 21 337 0.0 0.0 0.05 0.20 0.15 92 1029.5
20260507013542 21 337 0.0 0.0 0.05 0.20 0.15 92 1029.5
20260507013051 21 337 0.0 0.0 0.05 0.20 0.15 92 1029.5
20260507012542 21 337 0.0 0.0 0.05 0.20 0.15 92 1029.4
20260507012042 21 337 0.0 0.0 0.08 0.20 0.15 92 1029.3
20260507011542 21 337 0.0 0.0 0.08 0.20 0.15 92 1029.2
20260507011042 21 337 0.0 0.0 0.05 0.18 0.13 92 1029.1
20260507010542 21 337 0.0 0.0 0.05 0.18 0.13 92 1029.0
20260507010043 21 337 0.0 3.2 0.05 0.18 0.13 92 1028.9
20260507005542 21 337 1.6 3.2 0.08 0.20 0.13 92 1028.8
20260507005045 21 324 1.6 3.2 0.08 0.20 0.13 92 1028.8
20260507004552 21 360 0.0 0.0 0.05 0.18 0.10 92 1028.9
20260507004041 21 360 0.0 3.2 0.05 0.18 0.10 92 1028.7
20260507003540 21 360 0.0 3.2 0.05 0.18 0.10 92 1028.5
20260507003045 21 326 1.6 3.2 0.08 0.18 0.10 91 1028.5
20260507002540 21 347 0.0 1.6 0.08 0.18 0.10 91 1028.7
20260507002040 21 1 0.0 1.6 0.05 0.15 0.08 91 1028.5
20260507001545 21 1 0.0 3.2 0.05 0.15 0.08 91 1028.3
20260507001039 21 1 0.0 3.2 0.05 0.15 0.08 91 1028.1
20260507000545 21 327 0.0 3.2 0.05 0.15 0.08 91 1028.3
20260507000039 21 279 0.0 3.2 0.08 0.15 0.08 91 1028.6
20260506235539 21 233 1.6 3.2 0.05 0.18 0.05 91 1028.6
20260506235039 21 245 1.6 3.2 0.05 0.18 0.05 91 1028.6
20260506234544 22 238 0.0 0.0 0.05 0.18 0.05 91 1028.2
20260506234039 22 238 0.0 1.6 0.05 0.18 0.05 91 1027.9
20260506233539 22 238 0.0 1.6 0.05 0.18 0.05 91 1027.9
20260506233046 22 295 0.0 1.6 0.03 0.15 0.03 91 1027.7
20260506232538 22 295 0.0 4.8 0.03 0.15 0.03 91 1027.7
20260506232038 22 58 0.0 6.4 0.03 0.15 0.03 90 1027.5
20260506231538 22 216 0.0 9.7 0.03 0.15 0.03 90 1027.7
20260506231038 22 212 1.6 11.3 0.03 0.15 0.03 89 1027.7
20260506230539 22 10 3.2 11.3 0.03 0.15 0.03 89 1027.8
20260506230046 23 314 3.2 11.3 0.00 0.13 0.00 87 1027.7
20260506225537 24 354 1.6 14.5 0.00 0.15 0.00 85 1027.7
20260506225037 25 316 3.2 14.5 0.00 0.15 0.00 84 1027.0
20260506224537 25 333 0.0 4.8 0.00 0.15 0.00 85 1026.0
20260506224037 25 197 1.6 9.7 0.00 0.15 0.00 84 1026.0
20260506223538 25 279 3.2 9.7 0.00 0.15 0.00 84 1026.2
20260506223043 25 175 1.6 4.8 0.00 0.15 0.00 84 1026.2
20260506222536 26 278 1.6 4.8 0.00 0.15 0.00 83 1025.6
20260506222036 26 22 1.6 6.4 0.00 0.15 0.00 83 1026.1
20260506221535 26 198 0.0 8.0 0.00 0.15 0.00 83 1026.1
20260506221035 26 191 0.0 8.0 0.00 0.15 0.00 82 1025.6
20260506220537 26 249 3.2 8.0 0.00 0.15 0.00 82 1025.9
20260506220035 26 167 0.0 6.4 0.00 0.15 0.00 82 1025.8
20260506215534 26 227 0.0 6.4 0.00 0.20 0.00 82 1025.6
20260506215036 26 148 0.0 6.4 0.00 0.20 0.00 83 1025.6
20260506214541 26 73 0.0 6.4 0.00 0.20 0.00 83 1025.7
20260506214032 26 117 1.6 6.4 0.00 0.20 0.00 82 1026.0
20260506213530 26 168 0.0 4.8 0.00 0.20 0.00 83 1026.3
20260506213033 26 119 0.0 4.8 0.00 0.20 0.00 82 1026.6
20260506212530 26 339 0.0 1.6 0.00 0.20 0.00 82 1026.4
20260506212029 26 24 0.0 4.8 0.00 0.20 0.00 81 1026.7
20260506211528 26 88 1.6 4.8 0.00 0.20 0.00 80 1026.8
20260506211027 26 67 0.0 3.2 0.00 0.20 0.00 82 1026.8
20260506210527 26 67 0.0 3.2 0.00 0.20 0.00 82 1027.0
20260506210027 26 91 0.0 3.2 0.00 0.20 0.00 82 1027.1
20260506205528 25 166 0.0 1.6 0.00 0.25 0.00 85 1027.1
20260506205026 25 166 0.0 3.2 0.00 0.25 0.00 85 1027.1
20260506204527 25 87 0.0 3.2 0.00 0.25 0.00 87 1027.1
20260506204025 25 213 0.0 4.8 0.00 0.25 0.00 86 1027.2
20260506203523 24 176 0.0 4.8 0.00 0.25 0.00 87 1027.3
20260506203023 24 324 0.0 1.6 0.00 0.25 0.00 90 1027.3
20260506202521 23 349 0.0 0.0 0.00 0.25 0.00 90 1027.4
20260506202021 23 359 0.0 1.6 0.00 0.25 0.00 90 1027.5
20260506201521 23 359 0.0 3.2 0.00 0.25 0.00 90 1027.5
20260506201022 23 359 0.0 3.2 0.00 0.25 0.00 89 1027.5
20260506200520 23 340 1.6 3.2 0.00 0.25 0.00 90 1027.6
20260506200020 24 1 1.6 3.2 0.00 0.25 0.00 89 1027.7
20260506195519 24 8 1.6 3.2 0.00 0.30 0.00 89 1027.8
20260506195019 24 1 0.0 3.2 0.00 0.30 0.00 88 1027.9
20260506194519 25 1 0.0 3.2 0.00 0.30 0.00 87 1027.9
20260506194017 25 1 0.0 3.2 0.00 0.30 0.00 85 1027.9
20260506193517 25 356 0.0 6.4 0.00 0.30 0.00 85 1027.9
20260506193017 25 39 1.6 6.4 0.00 0.30 0.00 84 1028.1
20260506192518 25 24 0.0 4.8 0.00 0.30 0.00 84 1028.1
20260506192017 25 13 0.0 3.2 0.00 0.30 0.00 84 1028.2
20260506191517 25 15 0.0 3.2 0.00 0.30 0.00 85 1028.2
20260506191018 25 33 1.6 3.2 0.00 0.30 0.00 85 1028.4
20260506190518 25 21 0.0 3.2 0.00 0.30 0.00 85 1028.4
20260506190017 25 23 1.6 3.2 0.00 0.30 0.00 84 1028.5
20260506185517 25 338 0.0 1.6 0.00 0.36 0.00 85 1028.6
20260506185017 25 214 0.0 4.8 0.00 0.36 0.00 85 1028.6
20260506184534 25 52 0.0 4.8 0.00 0.36 0.00 83 1028.7
20260506184019 25 30 1.6 4.8 0.00 0.36 0.00 82 1028.7
20260506183516 25 52 0.0 4.8 0.00 0.36 0.00 83 1028.8
20260506183023 25 330 1.6 4.8 0.00 0.36 0.00 82 1028.8
20260506182515 25 1 1.6 6.4 0.00 0.36 0.00 81 1028.8
20260506182019 25 41 3.2 6.4 0.00 0.36 0.00 82 1028.8
20260506181516 25 322 0.0 4.8 0.00 0.36 0.00 82 1028.9
20260506181017 25 26 1.6 9.7 0.00 0.36 0.00 81 1028.8
20260506180515 25 68 1.6 9.7 0.00 0.36 0.00 81 1028.8
20260506180016 26 41 0.0 6.4 0.00 0.36 0.00 80 1028.8
20260506175515 26 70 1.6 6.4 0.00 0.43 0.00 80 1029.0
20260506175014 26 24 1.6 6.4 0.00 0.43 0.00 79 1029.0
20260506174518 26 73 0.0 4.8 0.00 0.43 0.00 79 1029.1
20260506174015 26 58 0.0 4.8 0.00 0.43 0.00 78 1029.1
20260506173514 26 78 0.0 6.4 0.00 0.43 0.00 79 1029.1
20260506173013 26 340 0.0 9.7 0.00 0.43 0.00 78 1029.2
20260506172513 26 96 1.6 9.7 0.00 0.43 0.00 79 1029.2
20260506172013 26 50 0.0 4.8 0.00 0.43 0.00 77 1029.1
20260506171513 26 79 1.6 6.4 0.00 0.43 0.00 78 1029.1
20260506171018 26 78 1.6 6.4 0.00 0.43 0.00 77 1029.1
20260506170512 26 73 3.2 6.4 0.00 0.43 0.00 77 1029.1
20260506170011 26 360 0.0 4.8 0.00 0.43 0.00 79 1029.1
20260506165511 26 95 1.6 6.4 0.00 0.46 0.00 79 1029.1
20260506165012 26 112 1.6 6.4 0.00 0.46 0.00 79 1029.1
20260506164510 26 63 1.6 8.0 0.00 0.46 0.00 79 1029.0
20260506164009 26 85 3.2 8.0 0.00 0.46 0.00 79 1029.2
20260506163509 26 30 1.6 6.4 0.00 0.46 0.00 79 1029.2
20260506163011 26 44 1.6 9.7 0.00 0.46 0.00 80 1029.2
20260506162506 25 165 0.0 4.8 0.00 0.46 0.00 79 1029.2
20260506162006 25 82 3.2 4.8 0.00 0.46 0.00 80 1029.3
20260506161505 25 57 1.6 4.8 0.00 0.46 0.00 80 1029.2
20260506161006 25 56 0.0 4.8 0.00 0.46 0.00 81 1029.2
20260506160502 25 67 1.6 4.8 0.00 0.46 0.00 82 1029.3
20260506160001 24 5 1.6 3.2 0.00 0.46 0.00 83 1029.3
20260506155602 24 30 0.0 4.8 0.00 0.48 0.00 85 1029.3
20260506155059 23 82 0.0 4.8 0.00 0.48 0.00 84 1029.4
20260506154602 23 98 3.2 4.8 0.00 0.48 0.00 86 1029.5
20260506154056 23 112 0.0 3.2 0.00 0.48 0.00 87 1029.6
20260506153553 23 49 0.0 3.2 0.00 0.48 0.00 88 1029.6
20260506153110 22 94 0.0 3.2 0.00 0.48 0.00 88 1029.6
20260506152550 22 67 0.0 3.2 0.00 0.48 0.00 88 1029.6
20260506152050 22 52 0.0 3.2 0.00 0.48 0.00 89 1029.6
20260506151547 21 1 0.0 3.2 0.00 0.48 0.00 90 1029.7
20260506151051 21 1 0.0 1.6 0.00 0.48 0.00 91 1029.7
20260506150546 21 1 0.0 3.2 0.00 0.48 0.00 91 1029.7
20260506150053 21 1 0.0 3.2 0.00 0.48 0.00 91 1029.6
20260506145544 21 1 0.0 3.2 0.00 0.51 0.00 91 1029.6
20260506145042 21 1 0.0 1.6 0.00 0.51 0.00 92 1029.7
20260506144544 21 1 0.0 1.6 0.00 0.51 0.00 92 1029.6
20260506144041 21 1 0.0 3.2 0.00 0.51 0.00 92 1029.7
20260506143539 21 1 0.0 3.2 0.00 0.51 0.00 92 1029.6
20260506143038 20 1 0.0 3.2 0.00 0.51 0.00 92 1029.6
20260506142536 20 1 0.0 3.2 0.00 0.51 0.00 92 1029.6
20260506142036 20 1 0.0 3.2 0.00 0.51 0.00 92 1029.6
20260506141535 20 3 0.0 3.2 0.00 0.51 0.00 92 1029.5
20260506141035 20 12 0.0 4.8 0.00 0.51 0.00 92 1029.4
20260506140537 20 12 0.0 4.8 0.00 0.51 0.00 92 1029.3
20260506140034 20 8 1.6 4.8 0.00 0.51 0.00 92 1029.3
20260506135533 20 360 3.2 4.8 0.00 0.53 0.00 92 1029.3
20260506135031 20 359 1.6 3.2 0.00 0.53 0.00 92 1029.3
20260506134532 19 2 1.6 3.2 0.00 0.53 0.00 93 1029.2
20260506134029 19 1 0.0 3.2 0.00 0.53 0.00 92 1029.1
20260506133527 19 1 0.0 3.2 0.00 0.53 0.00 92 1029.1
20260506133027 19 1 0.0 3.2 0.00 0.53 0.00 92 1029.1
20260506132528 19 4 0.0 3.2 0.00 0.53 0.00 93 1029.1
20260506132025 19 10 0.0 3.2 0.00 0.53 0.00 93 1029.1
20260506131533 19 10 0.0 3.2 0.00 0.53 0.00 93 1029.1
20260506131025 19 18 0.0 3.2 0.00 0.53 0.00 92 1029.2
20260506130525 18 13 1.6 3.2 0.00 0.53 0.00 93 1029.1
20260506130024 18 15 1.6 3.2 0.00 0.53 0.00 93 1029.2
20260506125524 18 20 0.0 3.2 0.00 0.53 0.00 93 1029.3
20260506125023 18 7 1.6 3.2 0.00 0.53 0.00 93 1029.3
20260506124522 18 4 1.6 3.2 0.00 0.53 0.00 92 1029.2
20260506124021 18 7 1.6 3.2 0.00 0.53 0.00 92 1029.2
20260506123521 18 7 1.6 3.2 0.00 0.53 0.00 92 1029.1
20260506123020 18 6 0.0 3.2 0.00 0.53 0.00 92 1029.0
20260506122521 18 4 0.0 3.2 0.00 0.53 0.00 93 1029.0
20260506122019 18 11 1.6 3.2 0.00 0.53 0.00 93 1029.0
20260506121520 18 6 0.0 3.2 0.00 0.53 0.00 93 1029.0
20260506121019 18 4 0.0 3.2 0.00 0.53 0.00 93 1028.9
20260506120518 18 4 0.0 3.2 0.00 0.53 0.00 92 1028.8
20260506120020 18 25 1.6 3.2 0.00 0.53 0.00 92 1028.9
20260506115517 18 11 1.6 3.2 0.00 0.56 0.00 92 1028.8
20260506115017 18 11 0.0 3.2 0.00 0.56 0.00 92 1028.8
20260506114521 18 11 1.6 3.2 0.00 0.56 0.00 92 1028.7
20260506114015 18 6 1.6 3.2 0.00 0.56 0.00 92 1028.6
20260506113514 18 6 0.0 3.2 0.00 0.56 0.00 92 1028.6
20260506113025 18 6 0.0 1.6 0.00 0.56 0.00 92 1028.6
20260506112513 18 6 0.0 1.6 0.00 0.56 0.00 92 1028.6
20260506112014 18 6 0.0 1.6 0.00 0.56 0.00 92 1028.6
20260506111513 18 6 0.0 3.2 0.00 0.56 0.00 92 1028.5
20260506111013 18 4 0.0 3.2 0.00 0.56 0.00 92 1028.4
20260506110513 18 5 0.0 3.2 0.00 0.56 0.00 92 1028.4
20260506110013 18 2 0.0 3.2 0.00 0.56 0.00 92 1028.3
20260506105513 18 4 0.0 3.2 0.00 0.56 0.00 92 1028.4
20260506105013 18 13 0.0 3.2 0.00 0.56 0.00 92 1028.4
20260506104512 18 13 1.6 4.8 0.00 0.56 0.00 92 1028.3
20260506104012 18 4 1.6 3.2 0.00 0.56 0.00 92 1028.3
20260506103511 18 6 1.6 4.8 0.00 0.56 0.00 92 1028.2
20260506103014 18 21 1.6 4.8 0.00 0.56 0.00 92 1028.2
20260506102515 18 1 1.6 6.4 0.00 0.56 0.00 92 1028.2
20260506102011 18 2 1.6 6.4 0.00 0.56 0.00 92 1028.2
20260506101512 18 329 3.2 4.8 0.00 0.56 0.00 92 1028.1
20260506101011 18 360 1.6 4.8 0.00 0.56 0.00 92 1028.0
20260506100510 18 7 1.6 4.8 0.00 0.56 0.00 92 1027.9
20260506100011 18 359 1.6 4.8 0.00 0.56 0.00 92 1027.9
20260506095510 18 12 1.6 3.2 0.00 0.58 0.00 92 1027.9
20260506095010 18 11 0.0 3.2 0.00 0.58 0.00 92 1027.9
20260506094510 18 13 0.0 4.8 0.00 0.58 0.00 92 1027.9
20260506094011 18 15 1.6 4.8 0.00 0.58 0.00 92 1027.9
20260506093508 18 1 1.6 3.2 0.00 0.58 0.00 92 1027.9
20260506093009 18 1 0.0 3.2 0.00 0.58 0.00 92 1027.9
20260506092510 18 360 0.0 3.2 0.00 0.58 0.00 92 1027.9
20260506092008 18 30 0.0 3.2 0.00 0.58 0.00 92 1027.8
20260506091508 18 30 0.0 3.2 0.00 0.58 0.00 92 1027.9
20260506091008 18 30 0.0 3.2 0.00 0.58 0.00 92 1027.9
20260506090508 18 32 0.0 3.2 0.00 0.58 0.00 92 1028.0
20260506090006 18 18 0.0 3.2 0.00 0.58 0.00 92 1028.0
20260506085505 18 18 0.0 3.2 0.00 0.61 0.00 92 1028.2
20260506085007 18 18 0.0 3.2 0.00 0.61 0.00 92 1028.2
20260506084505 18 20 1.6 4.8 0.00 0.61 0.00 92 1028.3
20260506084007 18 9 1.6 4.8 0.00 0.61 0.00 92 1028.4
20260506083503 18 5 0.0 3.2 0.00 0.61 0.00 92 1028.5
20260506083002 19 2 1.6 3.2 0.00 0.61 0.00 92 1028.6
20260506082502 19 25 0.0 1.6 0.00 0.61 0.00 92 1028.7
20260506082003 19 32 0.0 1.6 0.00 0.61 0.00 92 1028.6
20260506081502 19 32 0.0 3.2 0.00 0.61 0.00 92 1028.5
20260506081002 19 18 0.0 3.2 0.00 0.61 0.00 92 1028.6
20260506080601 19 18 0.0 3.2 0.00 0.61 0.00 92 1028.8
20260506080108 19 18 0.0 1.6 0.00 0.61 0.00 92 1028.8
20260506073055 19 18 0.0 1.6 0.00 0.61 0.00 92 1029.3
20260506072553 19 18 0.0 1.6 0.00 0.61 0.00 92 1029.3
20260506072054 19 18 0.0 3.2 0.00 0.61 0.00 92 1029.3
20260506071602 19 18 0.0 3.2 0.00 0.61 0.00 92 1029.3
20260506071052 19 18 1.6 3.2 0.00 0.61 0.00 92 1029.3
20260506070552 19 18 1.6 3.2 0.00 0.61 0.00 92 1029.4
20260506062049 20 19 0.0 3.2 0.00 0.64 0.00 91 1029.4
20260506061548 20 13 0.0 0.0 0.00 0.64 0.00 91 1029.4
20260506061047 20 13 0.0 0.0 0.00 0.64 0.00 92 1029.5
20260506060546 20 13 0.0 0.0 0.00 0.64 0.00 92 1029.5
20260506051043 20 1 0.0 0.0 0.00 0.66 0.64 92 1030.1
20260506050643 21 1 0.0 0.0 0.00 0.66 0.64 92 1030.1
20260506045042 21 1 0.0 0.0 0.00 0.69 0.64 92 1030.1
20260506044542 21 1 0.0 0.0 0.00 0.69 0.64 92 1030.1
20260506044042 21 359 0.0 0.0 0.00 0.69 0.64 92 1030.2
20260506043541 21 1 0.0 0.0 0.00 0.69 0.64 92 1030.1
20260506043042 21 8 0.0 0.0 0.00 0.69 0.64 92 1030.1
20260506042541 21 1 0.0 0.0 0.00 0.69 0.64 92 1030.2
20260506042044 21 1 0.0 0.0 0.00 0.69 0.64 92 1030.1